Regional Weather Roundup
Issued by NWS

Home | Current Version | Previous Version | Graphics & Text | Print | Product List | Glossary On
Versions: 1 2 3 4 5 6 7 8 9 10 11 12 13 14 15 16 17 18 19 20 21 22 23 24 25 26 27 28 29 30 31 32 33 34 35 36 37 38 39 40 41 42 43 44 45 46 47 48 49 50
000
ASUS44 KMEG 201510
RWRTN
TENNESSEE HOURLY STATE WEATHER ROUNDUP
NATIONAL WEATHER SERVICE MEMPHIS TN
1000 AM CDT FRI OCT 20 2017

TNZ002-004-019-021-049-052-054-088>092-201600-
WEST TENNESSEE

CITY           SKY/WX    TMP DP  RH WIND       PRES   REMARKS
MEMPHIS INTL   CLOUDY    68  56  65 S6        30.27R
NWS MEMPHIS      N/A     62 N/A N/A MISG        N/A
JACKSON        CLOUDY    63  56  78 CALM      30.29R
SOMERVILLE     SUNNY     64  57  77 CALM      30.26S
COVINGTON      SUNNY     63  55  77 SE3       30.27S
UNION CITY     SUNNY     63  54  72 S3        30.27F
BOLIVAR        SUNNY     59  54  82 CALM      30.28S
PARIS          SUNNY     63  54  72 VRB3      30.28S
HUNTINGDON     SUNNY     63  52  67 CALM      30.28S
LEXINGTON      SUNNY     59  52  77 CALM      30.30R
SELMER         SUNNY     61  52  72 SE5       30.29R
SAVANNAH       SUNNY     57  52  82 CALM      30.29S
$$

TNZ008-025-027-028-033-062-065-066-201600-
NORTH MIDDLE TENNESSEE

CITY           SKY/WX    TMP DP  RH WIND       PRES   REMARKS
NASHVILLE      PTSUNNY   62  50  64 CALM      30.32S
PORTLAND       SUNNY     64  54  68 CALM      30.30F
CLARKSVILLE    SUNNY     60  51  72 S3        30.31R
SMYRNA         SUNNY     60  50  69 VRB3      30.33F
COOKEVILLE     SUNNY     61  50  67 CALM      30.32F
GALLATIN       SUNNY     59  50  72 CALM      30.34F
CROSSVILLE     SUNNY     64  49  57 E5        30.34F
$$

TNZ061-075-076-078-094-096-097-201600-
SOUTH MIDDLE TENNESSEE

CITY           SKY/WX    TMP DP  RH WIND       PRES   REMARKS
FAYETTEVILLE   SUNNY     63  52  67 NE6       30.30S
TULLAHOMA      SUNNY     63  48  59 CALM      30.32F
WINCHESTER     SUNNY     61  50  67 CALM        N/A
COLUMBIA       SUNNY     57  50  77 CALM      30.30S
SHELBYVILLE    SUNNY     63  54  72 CALM      30.31F
$$

TNZ017-018-042-046-047-201600-
NORTHEAST TENNESSEE

CITY           SKY/WX    TMP DP  RH WIND       PRES   REMARKS
TRI CITIES     MOSUNNY   58  49  72 CALM      30.36F
ELIZABETHTON   SUNNY     59  45  58 CALM      30.36F
$$

TNZ012-013-036-069-073-074-201600-
CENTRAL EAST TENNESSEE

CITY           SKY/WX    TMP DP  RH WIND       PRES   REMARKS
KNOXVILLE      MOSUNNY   58  52  80 CALM      30.33F
OAK RIDGE      MOSUNNY   54  53  97 CALM      30.36F
DOWNTOWN KNOXV SUNNY     59  54  82 E5        30.35F
GATLINBURG     SUNNY     57  46  67 CALM      30.35S
MORRISTOWN     SUNNY     61  48  63 CALM      30.35S
JACKSBORO      SUNNY     57  50  77 CALM      30.39S
$$

TNZ083-085-099-201600-
SOUTHEAST TENNESSEE

CITY           SKY/WX    TMP DP  RH WIND       PRES   REMARKS
CHATTANOOGA    MOSUNNY   55  53  93 CALM      30.34S
DAYTON         SUNNY     57  57 100 VRB5      30.32F
$$

SKY/WX REPORTED AS FAIR MEANS FEW OR NO CLOUDS BELOW
12 THOUSAND FEET.





USA.gov is the U.S. government's official web portal to all federal, state and local government web resources and services.